Change the Weather History Date:

Monday, May 20, 2013

  Actual Average Record
Temperature  
Mean Temperature 66 °F -  
Max Temperature 76 °F 76 °F 92 °F (1964)
Min Temperature 56 °F 51 °F 37 °F (1997)
Growing Degree Days 16 (Base 50)    
Moisture  
Dew Point 56 °F    
Average Humidity 73    
Maximum Humidity 100    
Minimum Humidity 47    
Precipitation  
Precipitation 0.00 in - - ()
Sea Level Pressure  
Sea Level Pressure 29.59 in    
Wind  
Wind Speed 9 mph (SW)    
Max Wind Speed 23 mph    
Max Gust Speed 29 mph    
Visibility 10 miles    
Events      
Averages and records for this station are not official NWS values.
T = Trace of Precipitation, MM = Missing Value Source: NWS Daily Summary

Daily Weather History Graph

Daily Weather History Graph

Search for Another Location

Airport or City:

Trip Planner

Search our weather history database for the weather conditions in past years. The results will help you decide how hot, cold, wet, or windy it might be!

Date:

Astronomy

May. 20, 2013 Rise Set
Actual Time 6:02 AM CDT 8:43 PM CDT
Civil Twilight 5:30 AM CDT 9:15 PM CDT
Nautical Twilight 4:50 AM CDT 9:56 PM CDT
Astronomical Twilight 4:04 AM CDT 10:42 PM CDT
Moon 3:49 PM CDT (5/20) 3:01 AM CDT (5/20)
Length of Visible Light 15h 45m
Length of Day
14h 41m
Waxing Gibbous, 75% of the Moon is Illuminated
May 20
Waxing Gibbous
May 24
Full
May 31
Last Quarter
Jun 8
New
Jun 16
First Quarter

Hourly Weather History & Observations

Time (CDT) Temp. Dew Point Humidity Pressure Visibility Wind Dir Wind Speed Gust Speed Precip Events Conditions
12:15 AM 59.2 °F 57.2 °F 93% 29.53 in 10.0 mi WSW 5.8 mph - N/A   Clear
12:35 AM 59.0 °F 57.4 °F 94% 29.55 in 10.0 mi SW 4.6 mph - N/A   Clear
12:55 AM 59.0 °F 57.6 °F 95% 29.56 in 10.0 mi SSE 3.5 mph - N/A   Clear
1:15 AM 59.5 °F 58.1 °F 95% 29.56 in 10.0 mi SSE 6.9 mph - N/A   Clear
1:35 AM 59.9 °F 58.1 °F 94% 29.55 in 10.0 mi SE 5.8 mph - N/A   Clear
1:55 AM 59.0 °F 57.7 °F 96% 29.55 in 10.0 mi SE 5.8 mph - N/A   Clear
2:15 AM 59.0 °F 58.1 °F 97% 29.55 in 10.0 mi SSE 6.9 mph - N/A   Clear
2:35 AM 58.6 °F 58.1 °F 98% 29.54 in 10.0 mi SSE 4.6 mph - N/A   Clear
3:15 AM 57.4 °F 57.4 °F 100% 29.53 in 7.0 mi SSE 5.8 mph - N/A   Clear
3:35 AM 57.6 °F 57.6 °F 100% 29.53 in 5.0 mi SE 5.8 mph - N/A   Clear
3:55 AM 57.2 °F 57.2 °F 100% 29.53 in 5.0 mi SE 5.8 mph - N/A   Clear
4:35 AM 57.2 °F 57.2 °F 100% 29.53 in 5.0 mi South 3.5 mph - N/A   Clear
4:55 AM 56.8 °F 56.8 °F 100% 29.53 in 7.0 mi South 3.5 mph - N/A   Clear
5:15 AM 57.6 °F 56.8 °F 97% 29.54 in 10.0 mi SSW 5.8 mph - N/A   Scattered Clouds
5:35 AM 57.6 °F 56.7 °F 97% 29.55 in 10.0 mi SSW 5.8 mph - N/A   Overcast
5:55 AM 57.7 °F 56.7 °F 96% 29.56 in 10.0 mi SW 4.6 mph - N/A   Overcast
6:15 AM 57.6 °F 56.8 °F 97% 29.57 in 10.0 mi SSW 8.1 mph - N/A   Overcast
6:35 AM 58.1 °F 57.4 °F 97% 29.58 in 10.0 mi WSW 10.4 mph - N/A   Overcast
6:55 AM 59.0 °F 58.1 °F 97% 29.59 in 10.0 mi West 13.8 mph - N/A   Overcast
7:15 AM 59.5 °F 57.6 °F 93% 29.59 in 10.0 mi West 12.7 mph - N/A   Overcast
7:35 AM 60.1 °F 57.4 °F 91% 29.62 in 10.0 mi West 12.7 mph - N/A   Mostly Cloudy
7:55 AM 60.6 °F 57.2 °F 88% 29.62 in 10.0 mi West 11.5 mph - N/A   Scattered Clouds
8:15 AM 61.9 °F 57.2 °F 85% 29.63 in 10.0 mi WSW 11.5 mph 17.3 mph N/A   Scattered Clouds
8:35 AM 62.6 °F 57.4 °F 83% 29.64 in 10.0 mi WSW 11.5 mph 16.1 mph N/A   Clear
9:15 AM 64.0 °F 56.8 °F 77% 29.64 in 10.0 mi WSW 11.5 mph - N/A   Clear
9:35 AM 64.8 °F 56.5 °F 74% 29.64 in 10.0 mi WSW 16.1 mph - N/A   Clear
9:55 AM 65.7 °F 56.5 °F 72% 29.63 in 10.0 mi WSW 10.4 mph 20.7 mph N/A   Clear
10:35 AM 67.1 °F 56.7 °F 69% 29.65 in 10.0 mi SW 13.8 mph 19.6 mph N/A   Scattered Clouds
10:55 AM 68.0 °F 56.1 °F 66% 29.65 in 10.0 mi WSW 12.7 mph 16.1 mph N/A   Scattered Clouds
11:15 AM 68.4 °F 57.0 °F 67% 29.65 in 10.0 mi SW 13.8 mph 19.6 mph N/A   Scattered Clouds
11:35 AM 68.2 °F 56.1 °F 65% 29.65 in 10.0 mi SW 15.0 mph 21.9 mph N/A   Scattered Clouds
11:55 AM 69.4 °F 57.7 °F 66% 29.65 in 10.0 mi SSW 11.5 mph 19.6 mph N/A   Scattered Clouds
12:15 PM 70.0 °F 57.7 °F 65% 29.65 in 10.0 mi SSW 12.7 mph - N/A   Scattered Clouds
12:35 PM 70.5 °F 57.7 °F 64% 29.65 in 10.0 mi SSW 11.5 mph 18.4 mph N/A   Mostly Cloudy
12:55 PM 70.9 °F 57.2 °F 62% 29.65 in 10.0 mi SW 9.2 mph 15.0 mph N/A   Overcast
1:15 PM 70.3 °F 56.7 °F 62% 29.64 in 10.0 mi SW 12.7 mph 17.3 mph N/A   Overcast
1:55 PM 71.1 °F 56.3 °F 60% 29.63 in 10.0 mi SSW 10.4 mph 21.9 mph N/A   Overcast
2:15 PM 72.9 °F 58.1 °F 60% 29.62 in 10.0 mi South 18.4 mph 24.2 mph N/A   Mostly Cloudy
2:35 PM 73.4 °F 56.8 °F 56% 29.61 in 10.0 mi SSW 18.4 mph 25.3 mph N/A   Mostly Cloudy
2:55 PM 72.7 °F 57.0 °F 58% 29.61 in 10.0 mi South 15.0 mph 27.6 mph N/A   Mostly Cloudy
3:15 PM 71.8 °F 57.2 °F 60% 29.61 in 10.0 mi SSW 10.4 mph 23.0 mph N/A   Overcast
3:35 PM 71.6 °F 57.2 °F 60% 29.60 in 10.0 mi SSW 18.4 mph 25.3 mph N/A   Overcast
3:55 PM 73.8 °F 57.7 °F 57% 29.60 in 10.0 mi SSW 18.4 mph 23.0 mph N/A   Mostly Cloudy
4:15 PM 75.9 °F 55.9 °F 50% 29.59 in 10.0 mi SW 17.3 mph 27.6 mph N/A   Mostly Cloudy
4:35 PM 75.6 °F 54.7 °F 48% 29.59 in 10.0 mi SW 17.3 mph 28.8 mph N/A   Scattered Clouds
4:55 PM 74.7 °F 54.7 °F 50% 29.58 in 10.0 mi SW 16.1 mph 26.5 mph N/A   Scattered Clouds
5:15 PM 73.9 °F 53.4 °F 49% 29.58 in 10.0 mi SSW 17.3 mph 28.8 mph N/A   Mostly Cloudy
5:35 PM 73.4 °F 54.0 °F 50% 29.57 in 10.0 mi SW 12.7 mph 17.3 mph N/A   Overcast
5:55 PM 73.0 °F 53.1 °F 49% 29.57 in 10.0 mi SW 15.0 mph 21.9 mph N/A   Mostly Cloudy
6:15 PM 74.3 °F 53.6 °F 48% 29.56 in 10.0 mi WSW 15.0 mph 24.2 mph N/A   Scattered Clouds
6:35 PM 73.8 °F 52.3 °F 47% 29.56 in 10.0 mi SW 15.0 mph 28.8 mph N/A   Clear
6:55 PM 73.4 °F 53.2 °F 49% 29.56 in 10.0 mi WSW 17.3 mph 25.3 mph N/A   Clear
7:15 PM 72.5 °F 52.7 °F 50% 29.56 in 10.0 mi WSW 15.0 mph 20.7 mph N/A   Clear
7:35 PM 72.1 °F 51.8 °F 49% 29.56 in 10.0 mi SW 18.4 mph 24.2 mph N/A   Clear
7:55 PM 71.1 °F 52.0 °F 51% 29.56 in 10.0 mi WSW 12.7 mph 18.4 mph N/A   Clear
8:15 PM 70.0 °F 50.5 °F 50% 29.57 in 10.0 mi SW 10.4 mph 17.3 mph N/A   Clear
8:35 PM 68.7 °F 51.3 °F 54% 29.57 in 10.0 mi SW 9.2 mph - N/A   Clear
9:15 PM 66.9 °F 51.6 °F 58% 29.58 in 10.0 mi SW 9.2 mph 16.1 mph N/A   Clear
9:35 PM 64.9 °F 52.0 °F 63% 29.59 in 10.0 mi SW 8.1 mph - N/A   Clear
9:55 PM 64.0 °F 52.2 °F 65% 29.58 in 10.0 mi WSW 9.2 mph - N/A   Clear
10:15 PM 63.7 °F 52.7 °F 67% 29.59 in 10.0 mi WSW 9.2 mph - N/A   Mostly Cloudy
10:35 PM 63.7 °F 53.1 °F 68% 29.60 in 10.0 mi WSW 10.4 mph - N/A   Overcast
10:55 PM 63.5 °F 54.3 °F 72% 29.60 in 10.0 mi WSW 10.4 mph - N/A   Overcast
11:15 PM 62.2 °F 56.3 °F 81% 29.61 in 10.0 mi West 9.2 mph - N/A   Overcast
11:35 PM 62.1 °F 57.6 °F 85% 29.61 in 10.0 mi West 23.0 mph - N/A   Overcast
11:55 PM 60.4 °F 58.6 °F 94% 29.61 in 10.0 mi West 12.7 mph - N/A   Overcast